Year,Month,Day,Hour,Minute,Value (Times are PST for windspeed in km/hr)
2019,10,25,00,00,1.60
2019,10,25,00,01,2.30
2019,10,25,00,02,2.50
2019,10,25,00,03,2.60
2019,10,25,00,04,2.10
2019,10,25,00,05,2.40
2019,10,25,00,06,2.00
2019,10,25,00,07,1.90
2019,10,25,00,08,2.30
2019,10,25,00,09,1.70
2019,10,25,00,10,0.80
2019,10,25,00,11,2.00
2019,10,25,00,12,3.10
2019,10,25,00,13,3.00
2019,10,25,00,14,2.80
2019,10,25,00,15,3.00
2019,10,25,00,16,1.50
2019,10,25,00,17,2.60
2019,10,25,00,18,1.30
2019,10,25,00,19,1.20
2019,10,25,00,20,1.70
2019,10,25,00,21,2.10
2019,10,25,00,22,0.90
2019,10,25,00,23,2.00
2019,10,25,00,24,2.20
2019,10,25,00,25,2.10
2019,10,25,00,26,2.10
2019,10,25,00,27,0.90
2019,10,25,00,28,1.80
2019,10,25,00,29,2.20
2019,10,25,00,30,1.00
2019,10,25,00,31,1.10
2019,10,25,00,32,0.90
2019,10,25,00,33,1.00
2019,10,25,00,34,1.00
2019,10,25,00,35,0.60
2019,10,25,00,36,1.30
2019,10,25,00,37,1.70
2019,10,25,00,38,1.10
2019,10,25,00,39,1.40
2019,10,25,00,40,1.60
2019,10,25,00,41,1.30
2019,10,25,00,42,2.30
2019,10,25,00,43,1.70
2019,10,25,00,44,2.60
2019,10,25,00,45,0.70
2019,10,25,00,46,1.90
2019,10,25,00,47,1.80
2019,10,25,00,48,1.30
2019,10,25,00,49,1.40
2019,10,25,00,50,1.30
2019,10,25,00,51,0.20
2019,10,25,00,52,1.60
2019,10,25,00,53,1.30
2019,10,25,00,54,1.70
2019,10,25,00,55,1.90
2019,10,25,00,56,2.30
2019,10,25,00,57,1.10
2019,10,25,00,58,1.20
2019,10,25,00,59,1.00
2019,10,25,01,00,0.40
2019,10,25,01,01,0.50
2019,10,25,01,02,0.20
2019,10,25,01,03,0.40
2019,10,25,01,04,1.40
2019,10,25,01,05,2.20
2019,10,25,01,06,0.80
2019,10,25,01,07,1.70
2019,10,25,01,08,1.70
2019,10,25,01,09,1.60
2019,10,25,01,10,1.70
2019,10,25,01,11,1.80
2019,10,25,01,12,1.30
2019,10,25,01,13,1.70
2019,10,25,01,14,1.50
2019,10,25,01,15,2.50
2019,10,25,01,16,1.40
2019,10,25,01,17,1.30
2019,10,25,01,18,2.20
2019,10,25,01,19,1.60
2019,10,25,01,20,1.10
2019,10,25,01,21,0.50
2019,10,25,01,22,1.10
2019,10,25,01,23,0.50
2019,10,25,01,24,0.80
2019,10,25,01,25,1.20
2019,10,25,01,26,1.60
2019,10,25,01,27,1.20
2019,10,25,01,28,0.70
2019,10,25,01,29,0.10
2019,10,25,01,30,0.40
2019,10,25,01,31,0.20
2019,10,25,01,32,0.50
2019,10,25,01,33,0.60
2019,10,25,01,34,0.40
2019,10,25,01,35,0.30
2019,10,25,01,36,1.10
2019,10,25,01,37,0.00
2019,10,25,01,38,0.60
2019,10,25,01,39,1.80
2019,10,25,01,40,2.10
2019,10,25,01,41,2.20
2019,10,25,01,42,2.90
2019,10,25,01,43,1.60
2019,10,25,01,44,0.30
2019,10,25,01,45,1.30
2019,10,25,01,46,2.80
2019,10,25,01,47,1.40
2019,10,25,01,48,0.50
2019,10,25,01,49,2.00
2019,10,25,01,50,0.40
2019,10,25,01,51,0.80
2019,10,25,01,52,1.10
2019,10,25,01,53,1.90
2019,10,25,01,54,1.30
2019,10,25,01,55,1.20
2019,10,25,01,56,2.20
2019,10,25,01,57,2.10
2019,10,25,01,58,2.20
2019,10,25,01,59,1.10
2019,10,25,02,00,1.90
2019,10,25,02,01,1.40
2019,10,25,02,02,1.80
2019,10,25,02,03,0.70
2019,10,25,02,04,1.40
2019,10,25,02,05,1.70
2019,10,25,02,06,0.90
2019,10,25,02,07,0.00
2019,10,25,02,08,0.00
2019,10,25,02,09,0.00
2019,10,25,02,10,0.00
2019,10,25,02,11,0.00
2019,10,25,02,12,0.10
2019,10,25,02,13,0.50
2019,10,25,02,14,1.60
2019,10,25,02,15,2.30
2019,10,25,02,16,1.60
2019,10,25,02,17,0.30
2019,10,25,02,18,1.50
2019,10,25,02,19,2.10
2019,10,25,02,20,1.40
2019,10,25,02,21,0.90
2019,10,25,02,22,1.40
2019,10,25,02,23,0.80
2019,10,25,02,24,1.10
2019,10,25,02,25,1.80
2019,10,25,02,26,2.40
2019,10,25,02,27,1.40
2019,10,25,02,28,1.70
2019,10,25,02,29,1.50
2019,10,25,02,30,1.80
2019,10,25,02,31,3.20
2019,10,25,02,32,2.60
2019,10,25,02,33,1.80
2019,10,25,02,34,2.10
2019,10,25,02,35,1.80
2019,10,25,02,36,2.70
2019,10,25,02,37,1.10
2019,10,25,02,38,1.30
2019,10,25,02,39,1.40
2019,10,25,02,40,1.10
2019,10,25,02,41,2.10
2019,10,25,02,42,1.70
2019,10,25,02,43,0.80
2019,10,25,02,44,1.30
2019,10,25,02,45,3.40
2019,10,25,02,46,2.70
2019,10,25,02,47,2.20
2019,10,25,02,48,2.40
2019,10,25,02,49,2.90
2019,10,25,02,50,2.60
2019,10,25,02,51,2.50
2019,10,25,02,52,1.70
2019,10,25,02,53,0.60
2019,10,25,02,54,0.00
2019,10,25,02,55,1.00
2019,10,25,02,56,3.00
2019,10,25,02,57,2.60
2019,10,25,02,58,2.10
2019,10,25,02,59,0.50
2019,10,25,03,00,0.00
2019,10,25,03,01,0.00
2019,10,25,03,02,0.10
2019,10,25,03,03,0.40
2019,10,25,03,04,0.00
2019,10,25,03,05,0.00
2019,10,25,03,06,0.00
2019,10,25,03,07,0.00
2019,10,25,03,08,0.00
2019,10,25,03,09,0.00
2019,10,25,03,10,0.00
2019,10,25,03,11,0.00
2019,10,25,03,12,0.00
2019,10,25,03,13,0.00
2019,10,25,03,14,0.00
2019,10,25,03,15,0.00
2019,10,25,03,16,0.00
2019,10,25,03,17,0.00
2019,10,25,03,18,0.00
2019,10,25,03,19,0.00
2019,10,25,03,20,0.00
2019,10,25,03,21,0.00
2019,10,25,03,22,0.00
2019,10,25,03,23,0.00
2019,10,25,03,24,0.00
2019,10,25,03,25,2.00
2019,10,25,03,26,2.40
2019,10,25,03,27,2.40
2019,10,25,03,28,3.10
2019,10,25,03,29,2.10
2019,10,25,03,30,2.80
2019,10,25,03,31,3.70
2019,10,25,03,32,2.90
2019,10,25,03,33,3.60
2019,10,25,03,34,2.40
2019,10,25,03,35,3.20
2019,10,25,03,36,2.60
2019,10,25,03,37,1.30
2019,10,25,03,38,2.00
2019,10,25,03,39,1.10
2019,10,25,03,40,2.60
2019,10,25,03,41,2.10
2019,10,25,03,42,1.10
2019,10,25,03,43,2.10
2019,10,25,03,44,2.80
2019,10,25,03,45,3.70
2019,10,25,03,46,1.20
2019,10,25,03,47,1.70
2019,10,25,03,48,2.80
2019,10,25,03,49,0.90
2019,10,25,03,50,1.80
2019,10,25,03,51,1.80
2019,10,25,03,52,2.40
2019,10,25,03,53,1.20
2019,10,25,03,54,2.80
2019,10,25,03,55,2.90
2019,10,25,03,56,2.40
2019,10,25,03,57,2.60
2019,10,25,03,58,1.90
2019,10,25,03,59,1.70
2019,10,25,04,00,2.70
2019,10,25,04,01,2.60
2019,10,25,04,02,2.70
2019,10,25,04,03,4.00
2019,10,25,04,04,1.90
2019,10,25,04,05,2.10
2019,10,25,04,06,2.40
2019,10,25,04,07,2.90
2019,10,25,04,08,1.70
2019,10,25,04,09,3.20
2019,10,25,04,10,3.50
2019,10,25,04,11,3.00
2019,10,25,04,12,2.90
2019,10,25,04,13,2.30
2019,10,25,04,14,2.90
2019,10,25,04,15,3.30
2019,10,25,04,16,2.50
2019,10,25,04,17,2.10
2019,10,25,04,18,3.70
2019,10,25,04,19,3.60
2019,10,25,04,20,2.00
2019,10,25,04,21,2.40
2019,10,25,04,22,3.70
2019,10,25,04,23,3.60
2019,10,25,04,24,3.30
2019,10,25,04,25,2.60
2019,10,25,04,26,2.60
2019,10,25,04,27,3.40
2019,10,25,04,28,7.20
2019,10,25,04,29,3.00
2019,10,25,04,30,1.70
2019,10,25,04,31,2.20
2019,10,25,04,32,3.70
2019,10,25,04,33,3.00
2019,10,25,04,34,2.50
2019,10,25,04,35,2.50
2019,10,25,04,36,2.10
2019,10,25,04,37,3.30
2019,10,25,04,38,2.90
2019,10,25,04,39,3.20
2019,10,25,04,40,2.80
2019,10,25,04,41,2.30
2019,10,25,04,42,2.80
2019,10,25,04,43,2.60
2019,10,25,04,44,3.50
2019,10,25,04,45,1.70
2019,10,25,04,46,2.80
2019,10,25,04,47,2.50
2019,10,25,04,48,2.60
2019,10,25,04,49,2.40
2019,10,25,04,50,3.30
2019,10,25,04,51,2.10
2019,10,25,04,52,2.60
2019,10,25,04,53,3.60
2019,10,25,04,54,2.90
2019,10,25,04,55,2.80
2019,10,25,04,56,2.40
2019,10,25,04,57,2.40
2019,10,25,04,58,2.30
2019,10,25,04,59,2.70
2019,10,25,05,00,4.90
2019,10,25,05,01,3.80
2019,10,25,05,02,4.80
2019,10,25,05,03,3.30
2019,10,25,05,04,5.50
2019,10,25,05,05,3.60
2019,10,25,05,06,4.00
2019,10,25,05,07,3.30
2019,10,25,05,08,2.90
2019,10,25,05,09,4.20
2019,10,25,05,10,5.20
2019,10,25,05,11,6.60
2019,10,25,05,12,7.50
2019,10,25,05,13,7.20
2019,10,25,05,14,6.70
2019,10,25,05,15,6.40
2019,10,25,05,16,8.90
2019,10,25,05,17,7.90
2019,10,25,05,18,7.60
2019,10,25,05,19,4.90
2019,10,25,05,20,6.80
2019,10,25,05,21,3.40
2019,10,25,05,22,6.60
2019,10,25,05,23,2.90
2019,10,25,05,24,2.10
2019,10,25,05,25,3.00
2019,10,25,05,26,2.50
2019,10,25,05,27,1.40
2019,10,25,05,28,1.30
2019,10,25,05,29,0.00
2019,10,25,05,30,0.80
2019,10,25,05,31,2.40
2019,10,25,05,32,1.80
2019,10,25,05,33,1.70
2019,10,25,05,34,2.40
2019,10,25,05,35,1.90
2019,10,25,05,36,3.60
2019,10,25,05,37,4.70
2019,10,25,05,38,1.90
2019,10,25,05,39,0.80
2019,10,25,05,40,2.30
2019,10,25,05,41,2.80
2019,10,25,05,42,3.70
2019,10,25,05,43,3.70
2019,10,25,05,44,5.20
2019,10,25,05,45,2.30
2019,10,25,05,46,5.00
2019,10,25,05,47,4.00
2019,10,25,05,48,3.70
2019,10,25,05,49,1.40
2019,10,25,05,50,4.90
2019,10,25,05,51,8.20
2019,10,25,05,52,7.00
2019,10,25,05,53,3.70
2019,10,25,05,54,3.60
2019,10,25,05,55,4.80
2019,10,25,05,56,4.50
2019,10,25,05,57,6.30
2019,10,25,05,58,4.10
2019,10,25,05,59,8.60
2019,10,25,06,00,4.80
2019,10,25,06,01,4.20
2019,10,25,06,02,4.70
2019,10,25,06,03,3.40
2019,10,25,06,04,4.00
2019,10,25,06,05,2.20
2019,10,25,06,06,1.80
2019,10,25,06,07,7.30
2019,10,25,06,08,4.70
2019,10,25,06,09,3.30
2019,10,25,06,10,3.60
2019,10,25,06,11,2.00
2019,10,25,06,12,1.90
2019,10,25,06,13,2.90
2019,10,25,06,14,3.90
2019,10,25,06,15,5.70
2019,10,25,06,16,2.60
2019,10,25,06,17,1.90
2019,10,25,06,18,3.00
2019,10,25,06,19,2.00
2019,10,25,06,20,2.70
2019,10,25,06,21,1.80
2019,10,25,06,22,2.50
2019,10,25,06,23,3.10
2019,10,25,06,24,3.20
2019,10,25,06,25,2.90
2019,10,25,06,26,3.50
2019,10,25,06,27,3.20
2019,10,25,06,28,4.40
2019,10,25,06,29,4.20
2019,10,25,06,30,4.10
2019,10,25,06,31,4.20
2019,10,25,06,32,4.70
2019,10,25,06,33,3.00
2019,10,25,06,34,2.00
2019,10,25,06,35,2.30
2019,10,25,06,36,1.10
2019,10,25,06,37,2.90
2019,10,25,06,38,2.60
2019,10,25,06,39,2.30
2019,10,25,06,40,1.80
2019,10,25,06,41,2.00
2019,10,25,06,42,2.60
2019,10,25,06,43,1.50
2019,10,25,06,44,1.70
2019,10,25,06,45,2.10
2019,10,25,06,46,2.40
2019,10,25,06,47,3.40
2019,10,25,06,48,2.40
2019,10,25,06,49,2.60
2019,10,25,06,50,1.50
2019,10,25,06,51,1.70
2019,10,25,06,52,1.90
2019,10,25,06,53,2.00
2019,10,25,06,54,2.60
2019,10,25,06,55,2.20
2019,10,25,06,56,2.40
2019,10,25,06,57,3.80
2019,10,25,06,58,3.90
2019,10,25,06,59,1.70
2019,10,25,07,00,3.30
2019,10,25,07,01,3.10
2019,10,25,07,02,2.80
2019,10,25,07,03,3.40
2019,10,25,07,04,2.60
2019,10,25,07,05,4.00
2019,10,25,07,06,4.50
2019,10,25,07,07,4.00
2019,10,25,07,08,4.60
2019,10,25,07,09,4.60
2019,10,25,07,10,4.00
2019,10,25,07,11,5.20
2019,10,25,07,12,4.90
2019,10,25,07,13,5.00
2019,10,25,07,14,5.20
2019,10,25,07,15,4.90
2019,10,25,07,16,3.90
2019,10,25,07,17,2.90
2019,10,25,07,18,4.20
2019,10,25,07,19,3.50
2019,10,25,07,20,5.90
2019,10,25,07,21,3.80
2019,10,25,07,22,5.10
2019,10,25,07,23,3.60
2019,10,25,07,24,6.40
2019,10,25,07,25,4.40
2019,10,25,07,26,5.10
2019,10,25,07,27,6.90
2019,10,25,07,28,4.90
2019,10,25,07,29,4.00
2019,10,25,07,30,3.40
2019,10,25,07,31,3.60
2019,10,25,07,32,3.10
2019,10,25,07,33,3.40
2019,10,25,07,34,3.40
2019,10,25,07,35,4.20
2019,10,25,07,36,4.00
2019,10,25,07,37,5.30
2019,10,25,07,38,4.10
2019,10,25,07,39,6.30
2019,10,25,07,40,4.10
2019,10,25,07,41,4.90
2019,10,25,07,42,6.00
2019,10,25,07,43,4.80
2019,10,25,07,44,3.20
2019,10,25,07,45,6.10
2019,10,25,07,46,5.10
2019,10,25,07,47,3.10
2019,10,25,07,48,3.30
2019,10,25,07,49,3.80
2019,10,25,07,50,2.90
2019,10,25,07,51,3.00
2019,10,25,07,52,3.60
2019,10,25,07,53,4.00
2019,10,25,07,54,3.20
2019,10,25,07,55,2.80
2019,10,25,07,56,3.70
2019,10,25,07,57,3.00
2019,10,25,07,58,2.30
2019,10,25,07,59,3.40
2019,10,25,08,00,5.00
2019,10,25,08,01,1.80
2019,10,25,08,02,2.90
2019,10,25,08,03,3.40
2019,10,25,08,04,4.70
2019,10,25,08,05,5.20
2019,10,25,08,06,2.50
2019,10,25,08,07,2.20
2019,10,25,08,08,3.40
2019,10,25,08,09,3.50
2019,10,25,08,10,2.90
2019,10,25,08,11,3.40
2019,10,25,08,12,4.70
2019,10,25,08,13,4.30
2019,10,25,08,14,3.00
2019,10,25,08,15,2.50
2019,10,25,08,16,2.00
2019,10,25,08,17,0.80
2019,10,25,08,18,2.50
2019,10,25,08,19,3.40
2019,10,25,08,20,3.70
2019,10,25,08,21,2.70
2019,10,25,08,22,2.60
2019,10,25,08,23,1.60
2019,10,25,08,24,2.00
2019,10,25,08,25,2.30
2019,10,25,08,26,2.10
2019,10,25,08,27,2.60
2019,10,25,08,28,3.00
2019,10,25,08,29,2.10
2019,10,25,08,30,0.80
2019,10,25,08,31,7.80
2019,10,25,08,32,9.50
2019,10,25,08,33,5.40
2019,10,25,08,34,1.80
2019,10,25,08,35,2.50
2019,10,25,08,36,5.10
2019,10,25,08,37,4.40
2019,10,25,08,38,3.60
2019,10,25,08,39,4.90
2019,10,25,08,40,8.70
2019,10,25,08,41,15.00
2019,10,25,08,42,10.30
2019,10,25,08,43,10.50
2019,10,25,08,44,13.70
2019,10,25,08,45,7.90
2019,10,25,08,46,13.70
2019,10,25,08,47,11.70
2019,10,25,08,48,9.10
2019,10,25,08,49,7.50
2019,10,25,08,50,8.50
2019,10,25,08,51,7.50
2019,10,25,08,52,5.60
2019,10,25,08,53,6.10
2019,10,25,08,54,12.40
2019,10,25,08,55,11.30
2019,10,25,08,56,9.00
2019,10,25,08,57,9.10
2019,10,25,08,58,10.50
2019,10,25,08,59,11.50
2019,10,25,09,00,11.40
2019,10,25,09,01,8.20
2019,10,25,09,02,8.70
2019,10,25,09,03,6.60
2019,10,25,09,04,7.40
2019,10,25,09,05,7.60
2019,10,25,09,06,11.90
2019,10,25,09,07,7.80
2019,10,25,09,08,5.50
2019,10,25,09,09,4.80
2019,10,25,09,10,10.90
2019,10,25,09,11,8.10
2019,10,25,09,12,4.10
2019,10,25,09,13,11.60
2019,10,25,09,14,7.30
2019,10,25,09,15,8.50
2019,10,25,09,16,8.00
2019,10,25,09,17,7.20
2019,10,25,09,18,4.60
2019,10,25,09,19,3.20
2019,10,25,09,20,5.30
2019,10,25,09,21,6.70
2019,10,25,09,22,5.40
2019,10,25,09,23,3.80
2019,10,25,09,24,9.40
2019,10,25,09,25,7.30
2019,10,25,09,26,7.10
2019,10,25,09,27,7.70
2019,10,25,09,28,10.60
2019,10,25,09,29,4.90
2019,10,25,09,30,12.20
2019,10,25,09,31,4.90
2019,10,25,09,32,3.50
2019,10,25,09,33,4.70
2019,10,25,09,34,15.40
2019,10,25,09,35,10.40
2019,10,25,09,36,11.50
2019,10,25,09,37,13.80
2019,10,25,09,38,9.80
2019,10,25,09,39,7.00
2019,10,25,09,40,4.90
2019,10,25,09,41,10.10
2019,10,25,09,42,6.40
2019,10,25,09,43,7.70
2019,10,25,09,44,8.20
2019,10,25,09,45,6.50
2019,10,25,09,46,5.20
2019,10,25,09,47,10.70
2019,10,25,09,48,8.30
2019,10,25,09,49,9.70
2019,10,25,09,50,6.70
2019,10,25,09,51,8.80
2019,10,25,09,52,6.10
2019,10,25,09,53,5.70
2019,10,25,09,54,9.30
2019,10,25,09,55,14.40
2019,10,25,09,56,4.00
2019,10,25,09,57,3.20
2019,10,25,09,58,2.90
2019,10,25,09,59,6.80
2019,10,25,10,00,6.90
2019,10,25,10,01,3.00
2019,10,25,10,02,3.90
2019,10,25,10,03,5.20
2019,10,25,10,04,6.00
2019,10,25,10,05,5.70
2019,10,25,10,06,3.90
2019,10,25,10,07,2.50
2019,10,25,10,08,6.00
2019,10,25,10,09,7.50
2019,10,25,10,10,5.90
2019,10,25,10,11,7.50
2019,10,25,10,12,4.70
2019,10,25,10,13,3.70
2019,10,25,10,14,3.30
2019,10,25,10,15,11.20
2019,10,25,10,16,11.60
2019,10,25,10,17,8.90
2019,10,25,10,18,8.50
2019,10,25,10,19,6.70
2019,10,25,10,20,7.50
2019,10,25,10,21,7.60
2019,10,25,10,22,6.00
2019,10,25,10,23,5.60
2019,10,25,10,24,7.70
2019,10,25,10,25,4.40
2019,10,25,10,26,8.90
2019,10,25,10,27,6.50
2019,10,25,10,28,6.60
2019,10,25,10,29,6.70
2019,10,25,10,30,9.90
2019,10,25,10,31,6.80
2019,10,25,10,32,5.60
2019,10,25,10,33,6.90
2019,10,25,10,34,5.10
2019,10,25,10,35,7.70
2019,10,25,10,36,6.10
2019,10,25,10,37,6.90
2019,10,25,10,38,5.50
2019,10,25,10,39,9.40
2019,10,25,10,40,4.80
2019,10,25,10,41,6.10
2019,10,25,10,42,8.30
2019,10,25,10,43,9.30
2019,10,25,10,44,5.30
2019,10,25,10,45,5.70
2019,10,25,10,46,7.20
2019,10,25,10,47,15.10
2019,10,25,10,48,9.10
2019,10,25,10,49,5.10
2019,10,25,10,50,8.30
2019,10,25,10,51,8.70
2019,10,25,10,52,7.90
2019,10,25,10,53,8.20
2019,10,25,10,54,2.60
2019,10,25,10,55,6.10
2019,10,25,10,56,9.00
2019,10,25,10,57,5.40
2019,10,25,10,58,3.30
2019,10,25,10,59,3.60
2019,10,25,11,00,3.60
2019,10,25,11,01,8.20
2019,10,25,11,02,9.60
2019,10,25,11,03,6.70
2019,10,25,11,04,3.90
2019,10,25,11,05,6.30
2019,10,25,11,06,7.90
2019,10,25,11,07,7.20
2019,10,25,11,08,3.20
2019,10,25,11,09,4.80
2019,10,25,11,10,10.80
2019,10,25,11,11,9.40
2019,10,25,11,12,12.20
2019,10,25,11,13,6.90
2019,10,25,11,14,5.80
2019,10,25,11,15,5.20
2019,10,25,11,16,6.50
2019,10,25,11,17,9.40
2019,10,25,11,18,5.30
2019,10,25,11,19,5.20
2019,10,25,11,20,3.90
2019,10,25,11,21,7.20
2019,10,25,11,22,9.10
2019,10,25,11,23,6.20
2019,10,25,11,24,2.90
2019,10,25,11,25,4.60
2019,10,25,11,26,8.20
2019,10,25,11,27,8.30
2019,10,25,11,28,6.20
2019,10,25,11,29,7.60
2019,10,25,11,30,6.10
2019,10,25,11,31,9.50
2019,10,25,11,32,9.20
2019,10,25,11,33,12.60
2019,10,25,11,34,11.70
2019,10,25,11,35,14.50
2019,10,25,11,36,12.90
2019,10,25,11,37,4.50
2019,10,25,11,38,8.50
2019,10,25,11,39,5.20
2019,10,25,11,40,7.90
2019,10,25,11,41,8.20
2019,10,25,11,42,6.90
2019,10,25,11,43,8.80
2019,10,25,11,44,6.90
2019,10,25,11,45,3.20
2019,10,25,11,46,2.40
2019,10,25,11,47,4.90
2019,10,25,11,48,6.40
2019,10,25,11,49,10.70
2019,10,25,11,50,6.10
2019,10,25,11,51,10.50
2019,10,25,11,52,9.00
2019,10,25,11,53,5.60
2019,10,25,11,54,9.30
2019,10,25,11,55,10.40
2019,10,25,11,56,7.90
2019,10,25,11,57,6.60
2019,10,25,11,58,9.60
2019,10,25,11,59,6.80
2019,10,25,12,00,9.40
2019,10,25,12,01,14.70
2019,10,25,12,02,9.40
2019,10,25,12,03,7.20
2019,10,25,12,04,6.00
2019,10,25,12,05,7.60
2019,10,25,12,06,3.90
2019,10,25,12,07,7.70
2019,10,25,12,08,10.00
2019,10,25,12,09,7.90
2019,10,25,12,10,7.50
2019,10,25,12,11,12.90
2019,10,25,12,12,14.50
2019,10,25,12,13,12.50
2019,10,25,12,14,7.50
2019,10,25,12,15,5.20
2019,10,25,12,16,8.30
2019,10,25,12,17,12.10
2019,10,25,12,18,8.60
2019,10,25,12,19,11.20
2019,10,25,12,20,10.40
2019,10,25,12,21,10.20
2019,10,25,12,22,14.10
2019,10,25,12,23,14.90
2019,10,25,12,24,11.50
2019,10,25,12,25,13.80
2019,10,25,12,26,12.90
2019,10,25,12,27,10.70
2019,10,25,12,28,10.70
2019,10,25,12,29,8.60
2019,10,25,12,30,10.50
2019,10,25,12,31,11.30
2019,10,25,12,32,14.30
2019,10,25,12,33,10.50
2019,10,25,12,34,12.80
2019,10,25,12,35,14.40
2019,10,25,12,36,11.00
2019,10,25,12,37,13.80
2019,10,25,12,38,8.50
2019,10,25,12,39,7.70
2019,10,25,12,40,14.00
2019,10,25,12,41,18.40
2019,10,25,12,42,15.60
2019,10,25,12,43,13.00
2019,10,25,12,44,11.00
2019,10,25,12,45,9.80
2019,10,25,12,46,13.60
2019,10,25,12,47,11.80
2019,10,25,12,48,5.90
2019,10,25,12,49,6.80
2019,10,25,12,50,12.60
2019,10,25,12,51,11.70
2019,10,25,12,52,11.90
2019,10,25,12,53,12.20
2019,10,25,12,54,12.00
2019,10,25,12,55,7.40
2019,10,25,12,56,5.80
2019,10,25,12,57,8.30
2019,10,25,12,58,12.60
2019,10,25,12,59,8.20
2019,10,25,13,00,7.20
2019,10,25,13,01,5.90
2019,10,25,13,02,5.70
2019,10,25,13,03,9.50
2019,10,25,13,04,9.30
2019,10,25,13,05,6.70
2019,10,25,13,06,7.20
2019,10,25,13,07,11.30
2019,10,25,13,08,10.00
2019,10,25,13,09,10.40
2019,10,25,13,10,12.60
2019,10,25,13,11,20.20
2019,10,25,13,12,16.40
2019,10,25,13,13,21.30
2019,10,25,13,14,12.60
2019,10,25,13,15,9.70
2019,10,25,13,16,11.80
2019,10,25,13,17,12.30
2019,10,25,13,18,9.30
2019,10,25,13,19,12.60
2019,10,25,13,20,10.40
2019,10,25,13,21,13.20
2019,10,25,13,22,18.00
2019,10,25,13,23,7.60
2019,10,25,13,24,11.70
2019,10,25,13,25,15.70
2019,10,25,13,26,10.30
2019,10,25,13,27,12.70
2019,10,25,13,28,12.60
2019,10,25,13,29,14.50
2019,10,25,13,30,18.30
2019,10,25,13,31,10.00
2019,10,25,13,32,13.30
2019,10,25,13,33,16.00
2019,10,25,13,34,14.40
2019,10,25,13,35,21.40
2019,10,25,13,36,10.10
2019,10,25,13,37,9.50
2019,10,25,13,38,9.40
2019,10,25,13,39,13.40
2019,10,25,13,40,16.00
2019,10,25,13,41,17.20
2019,10,25,13,42,18.20
2019,10,25,13,43,16.90
2019,10,25,13,44,17.10
2019,10,25,13,45,17.80
2019,10,25,13,46,22.30
2019,10,25,13,47,9.80
2019,10,25,13,48,18.40
2019,10,25,13,49,17.60
2019,10,25,13,50,12.00
2019,10,25,13,51,10.90
2019,10,25,13,52,10.00
2019,10,25,13,53,9.80
2019,10,25,13,54,13.90
2019,10,25,13,55,14.40
2019,10,25,13,56,14.60
2019,10,25,13,57,16.60
2019,10,25,13,58,17.10
2019,10,25,13,59,12.60
2019,10,25,14,00,11.80
2019,10,25,14,01,12.00
2019,10,25,14,02,10.40
2019,10,25,14,03,17.20
2019,10,25,14,04,13.50
2019,10,25,14,05,21.20
2019,10,25,14,06,21.90
2019,10,25,14,07,16.60
2019,10,25,14,08,12.80
2019,10,25,14,09,11.80
2019,10,25,14,10,11.20
2019,10,25,14,11,12.10
2019,10,25,14,12,17.80
2019,10,25,14,13,16.90
2019,10,25,14,14,18.70
2019,10,25,14,15,14.90
2019,10,25,14,16,19.80
2019,10,25,14,17,15.80
2019,10,25,14,18,14.60
2019,10,25,14,19,11.60
2019,10,25,14,20,13.10
2019,10,25,14,21,12.40
2019,10,25,14,22,10.20
2019,10,25,14,23,14.50
2019,10,25,14,24,19.40
2019,10,25,14,25,10.10
2019,10,25,14,26,17.20
2019,10,25,14,27,16.70
2019,10,25,14,28,14.60
2019,10,25,14,29,17.10
2019,10,25,14,30,10.10
2019,10,25,14,31,12.30
2019,10,25,14,32,8.50
2019,10,25,14,33,7.50
2019,10,25,14,34,4.50
2019,10,25,14,35,5.90
2019,10,25,14,36,12.40
2019,10,25,14,37,13.20
2019,10,25,14,38,14.50
2019,10,25,14,39,10.30
2019,10,25,14,40,13.70
2019,10,25,14,41,6.70
2019,10,25,14,42,5.70
2019,10,25,14,43,8.40
2019,10,25,14,44,5.60
2019,10,25,14,45,10.60
2019,10,25,14,46,15.50
2019,10,25,14,47,10.40
2019,10,25,14,48,10.90
2019,10,25,14,49,8.40
2019,10,25,14,50,12.60
2019,10,25,14,51,8.70
2019,10,25,14,52,18.30
2019,10,25,14,53,5.40
2019,10,25,14,54,8.20
2019,10,25,14,55,12.00
2019,10,25,14,56,7.80
2019,10,25,14,57,7.20
2019,10,25,14,58,8.20
2019,10,25,14,59,10.70
2019,10,25,15,00,18.00
2019,10,25,15,01,11.60
2019,10,25,15,02,12.00
2019,10,25,15,03,9.50
2019,10,25,15,04,8.80
2019,10,25,15,05,17.90
2019,10,25,15,06,11.70
2019,10,25,15,07,14.10
2019,10,25,15,08,8.80
2019,10,25,15,09,16.50
2019,10,25,15,10,19.00
2019,10,25,15,11,16.10
2019,10,25,15,12,10.00
2019,10,25,15,13,8.50
2019,10,25,15,14,11.10
2019,10,25,15,15,9.10
2019,10,25,15,16,13.40
2019,10,25,15,17,10.40
2019,10,25,15,18,12.30
2019,10,25,15,19,10.60
2019,10,25,15,20,7.40
2019,10,25,15,21,12.50
2019,10,25,15,22,11.40
2019,10,25,15,23,11.90
2019,10,25,15,24,12.00
2019,10,25,15,25,11.70
2019,10,25,15,26,7.60
2019,10,25,15,27,15.20
2019,10,25,15,28,9.30
2019,10,25,15,29,8.10
2019,10,25,15,30,10.20
2019,10,25,15,31,10.70
2019,10,25,15,32,16.30
2019,10,25,15,33,13.10
2019,10,25,15,34,10.70
2019,10,25,15,35,9.00
2019,10,25,15,36,12.70
2019,10,25,15,37,10.50
2019,10,25,15,38,16.30
2019,10,25,15,39,18.60
2019,10,25,15,40,8.30
2019,10,25,15,41,12.80
2019,10,25,15,42,8.20
2019,10,25,15,43,14.40
2019,10,25,15,44,11.00
2019,10,25,15,45,16.60
2019,10,25,15,46,12.80
2019,10,25,15,47,15.50
2019,10,25,15,48,12.90
2019,10,25,15,49,17.80
2019,10,25,15,50,11.50
2019,10,25,15,51,10.20
2019,10,25,15,52,11.80
2019,10,25,15,53,12.10
2019,10,25,15,54,4.40
2019,10,25,15,55,6.00
2019,10,25,15,56,16.60
2019,10,25,15,57,15.70
2019,10,25,15,58,14.50
2019,10,25,15,59,9.20
2019,10,25,16,00,13.30
2019,10,25,16,01,10.50
2019,10,25,16,02,10.90
2019,10,25,16,03,16.20
2019,10,25,16,04,8.70
2019,10,25,16,05,13.50
2019,10,25,16,06,13.20
2019,10,25,16,07,14.50
2019,10,25,16,08,10.90
2019,10,25,16,09,10.80
2019,10,25,16,10,16.30
2019,10,25,16,11,17.20
2019,10,25,16,12,12.70
2019,10,25,16,13,9.10
2019,10,25,16,14,9.90
2019,10,25,16,15,11.60
2019,10,25,16,16,19.80
2019,10,25,16,17,11.80
2019,10,25,16,18,10.00
2019,10,25,16,19,17.80
2019,10,25,16,20,18.80
2019,10,25,16,21,14.00
2019,10,25,16,22,10.80
2019,10,25,16,23,9.80
2019,10,25,16,24,14.60
2019,10,25,16,25,13.90
2019,10,25,16,26,7.20
2019,10,25,16,27,11.40
2019,10,25,16,28,16.70
2019,10,25,16,29,16.80
2019,10,25,16,30,16.20
2019,10,25,16,31,17.60
2019,10,25,16,32,10.80
2019,10,25,16,33,15.90
2019,10,25,16,34,14.60
2019,10,25,16,35,13.30
2019,10,25,16,36,10.00
2019,10,25,16,37,13.60
2019,10,25,16,38,13.50
2019,10,25,16,39,17.90
2019,10,25,16,40,16.00
2019,10,25,16,41,14.90
2019,10,25,16,42,13.60
2019,10,25,16,43,9.00
2019,10,25,16,44,9.50
2019,10,25,16,45,9.10
2019,10,25,16,46,9.70
2019,10,25,16,47,9.70
2019,10,25,16,48,8.90
2019,10,25,16,49,17.70
2019,10,25,16,50,10.00
2019,10,25,16,51,9.70
2019,10,25,16,52,8.90
2019,10,25,16,53,13.20
2019,10,25,16,54,10.40
2019,10,25,16,55,15.00
2019,10,25,16,56,14.90
2019,10,25,16,57,15.00
2019,10,25,16,58,16.30
2019,10,25,16,59,17.00
2019,10,25,17,00,16.00
2019,10,25,17,01,16.30
2019,10,25,17,02,12.50
2019,10,25,17,03,11.10
2019,10,25,17,04,20.30
2019,10,25,17,05,11.50
2019,10,25,17,06,10.40
2019,10,25,17,07,12.60
2019,10,25,17,08,16.40
2019,10,25,17,09,14.00
2019,10,25,17,10,13.30
2019,10,25,17,11,9.60
2019,10,25,17,12,9.70
2019,10,25,17,13,12.10
2019,10,25,17,14,16.10
2019,10,25,17,15,8.90
2019,10,25,17,16,12.00
2019,10,25,17,17,15.60
2019,10,25,17,18,13.30
2019,10,25,17,19,12.30
2019,10,25,17,20,9.80
2019,10,25,17,21,15.90
2019,10,25,17,22,14.30
2019,10,25,17,23,14.90
2019,10,25,17,24,13.10
2019,10,25,17,25,11.00
2019,10,25,17,26,11.40
2019,10,25,17,27,12.10
2019,10,25,17,28,15.10
2019,10,25,17,29,12.20
2019,10,25,17,30,10.40
2019,10,25,17,31,11.90
2019,10,25,17,32,16.50
2019,10,25,17,33,14.00
2019,10,25,17,34,13.40
2019,10,25,17,35,8.70
2019,10,25,17,36,9.70
2019,10,25,17,37,12.00
2019,10,25,17,38,13.20
2019,10,25,17,39,14.20
2019,10,25,17,40,11.30
2019,10,25,17,41,15.40
2019,10,25,17,42,14.80
2019,10,25,17,43,11.00
2019,10,25,17,44,11.00
2019,10,25,17,45,10.00
2019,10,25,17,46,12.00
2019,10,25,17,47,11.30
2019,10,25,17,48,18.60
2019,10,25,17,49,19.50
2019,10,25,17,50,14.00
2019,10,25,17,51,13.80
2019,10,25,17,52,8.60